ECHOSTAR 19 (41893 NORAD) Tracking and Keplerian Element Data

This shows tracking and keplerian element data for the satellite.

Feedback or suggestion? Click here.




ElementValue
Catalog41893
NameECHOSTAR 19
Epoch Orbit818
Epoch Day77.61996477
Epoch Year2019
RAAN162.7028
Inclination0.0177
Eccentricity0.000153
Argument of Perigee194.8352
Mean Anonmoly304.4132
Mean Motion1.00271922
Decay Rate-1.61E-06
L11 41893U 16079A 19077.61996477 -.00000161 00000-0 00000+0 0 9999
L22 41893 0.0177 162.7028 0001530 194.8352 304.4132 1.00271922 8187

Live tracking and technical data element details for ECHOSTAR 19 (NORAD 41893). ECHOSTAR 19 can be tracked NOW for your location showing map with azimuth and elevation plus other details from your city location.

Track the satellite on the map from your city or location and see movement details for azimuth, elevation, latitude, longitude, range, height, and movement on the map or in text.







IsCatalogInMostPopularTable: catalog: 41893, numindb: 204
Update: records affected: 1



GetName: 41893 ECHOSTAR 19

Hit Count: updated at: Wed, 20 Mar 2019 04:54:04 GMT